[TLELIST] Archives

 

Current TLEs <27 NOVEMBER 2004>

November 27th 2004 PDT

HST 1 20580U 90037B 04332.53567644 .00001215 00000-0 83601-4 0 2158 2 20580 28.4670 142.4531 0004037 288.3032 71.7134 14.99458598599945 ISS 1 25544U 98067A 04332.56901872 .00029665 00000-0 23840-3 0 2340 2 25544 51.6396 211.9275 0004434 53.3561 33.6100 15.70700073343987 CHANDRA 1 25867U 99040B 04330.25000000 +.00000000 +00000-0 +00000-0 0 07243 2 25867 055.3510 107.2877 5711897 303.4742 359.5826 00.37806356001212 These 2-Line Elements (TLEs) are from US Space Command courtesy TS Kelso's Celestial BB ...Continue Reading

Current TLEs <24 NOVEMBER 2004>

November 24th 2004 PDT

HST 1 20580U 90037B 04329.54047290 .00001085 00000-0 73300-4 0 2133 2 20580 28.4687 161.9657 0003883 255.9716 104.0455 14.99451803599493 ISS 1 25544U 98067A 04329.89539215 .00023249 00000-0 18931-3 0 2156 2 25544 51.6417 225.5901 0004478 35.3806 44.1037 15.70534191343564 CHANDRA 1 25867U 99040B 04330.25000000 +.00000000 +00000-0 +00000-0 0 07243 2 25867 055.3510 107.2877 5711897 303.4742 359.5826 00.37806356001212 These 2-Line Elements (TLEs) are from US Space Command courtesy TS Kelso's Celestial BB ...Continue Reading

Current TLEs <15 NOVEMBER 2004>

November 15th 2004 PDT

HST 1 20580U 90037B 04320.08887081 .00001106 00000-0 75022-4 0 2062 2 20580 28.4675 223.5183 0004157 160.1123 199.9625 14.99435546598074 ISS 1 25544U 98067A 04321.03842593 .00024583 00000-0 19552-3 0 1522 2 25544 51.6356 270.8312 0008405 1.5326 9.5182 15.71033771342172 CHANDRA 1 25867U 99040B 04319.66666667 +.00000000 +00000-0 +00000-0 0 07220 2 25867 055.2088 107.5152 5711764 303.6164 358.8204 00.37795315001217 These 2-Line Elements (TLEs) are from US Space Command courtesy TS Kelso's Celestial BB ...Continue Reading

Current TLEs <12 NOVEMBER 2004>

November 13th 2004 PDT

HST 1 20580U 90037B 04318.09204379 .00001264 00000-0 87610-4 0 2053 2 20580 28.4689 236.5159 0004110 123.5182 236.5803 14.99432535597770 ISS 1 25544U 98067A 04318.51666667 .00024712 00000-0 19755-3 0 1302 2 25544 51.6359 283.7277 0008388 352.4920 147.1645 15.70907523341778 CHANDRA 1 25867U 99040B 04317.04166667 +.00000000 +00000-0 +00000-0 0 07214 2 25867 055.1343 107.5934 5718116 303.6402 001.4113 00.37806210001218 These 2-Line Elements (TLEs) are from US Space Command courtesy TS Kelso's Celestial BB ...Continue Reading

Current TLEs <10 NOVEMBER 2004>

November 11th 2004 PDT

HST 1 20580U 90037B 04315.96208395 +.00003499 +00000-0 +26581-3 0 02048 2 20580 028.4698 250.3781 0004427 111.2179 248.8995 14.99429389597452 ISS 1 25544U 98067A 04316.64376157 .00052014 00000-0 41054-3 0 1174 2 25544 51.6365 293.2988 0007905 346.8849 354.2024 15.70834442341479 CHANDRA 1 25867U 99040B 04317.04166667 +.00000000 +00000-0 +00000-0 0 07214 2 25867 055.1343 107.5934 5718116 303.6402 001.4113 00.37806210001218 These 2-Line Elements (TLEs) are from US Space Command courtesy TS Kelso's Celestial BB ...Continue Reading

Current TLEs <08 NOVEMBER 2004>

November 8th 2004 PDT

HST 1 20580U 90037B 04312.23461837 .00001474 00000-0 10449-3 0 2011 2 20580 28.4684 274.6668 0003362 74.8114 285.2838 14.99406439596899 ISS 1 25544U 98067A 04313.99307617 .00058078 00000-0 46237-3 0 997 2 25544 51.6361 306.8466 0008477 333.5378 129.1585 15.70575384341065 CHANDRA 1 25867U 99040B 04314.33333333 .00000000 00000-0 00000+0 0 7207 2 25867 55.0814 107.6975 5717704 303.6346 352.6798 0.37802034 1215 These 2-Line Elements (TLEs) are from US Space Command courtesy TS Kelso's Celestial BB ...Continue Reading

Current TLEs <04 NOVEMBER 2004>

November 4th 2004 PDT

HST 1 20580U 90037B 04308.30742512 .00001709 00000-0 12329-3 0 1981 2 20580 28.4694 300.2419 0003218 30.9754 329.1025 14.99396811596307 ISS 1 25544U 98067A 04309.66615861 .00029280 00000-0 23936-3 0 702 2 25544 51.6366 328.9450 0008457 317.1822 147.3274 15.70263923340382 CHANDRA 1 25867U 99040B 04309.08333333 +.00000000 +00000-0 +00000-0 0 07181 2 25867 055.0596 107.7947 5717467 303.7551 357.8797 00.37791446001217 These 2-Line Elements (TLEs) are from US Space Command courtesy TS Kelso's Celestial BB ...Continue Reading

Current TLEs <02 NOVEMBER 2004>

November 2nd 2004 PDT

HST 1 20580U 90037B 04307.17585631 .00001685 00000-0 12134-3 0 1978 2 20580 28.4696 307.6099 0003201 18.3419 341.7285 14.99393108596139 ISS 1 25544U 98067A 04307.51075260 .00037779 00000-0 30851-3 0 512 2 25544 51.6368 339.9531 0008388 307.4833 204.9552 15.70155960340046 CHANDRA 1 25867U 99040B 04306.41666667 .00000000 00000-0 00000+0 0 7172 2 25867 55.0275 107.8280 5723543 303.8045 354.8671 0.37797982 1212 These 2-Line Elements (TLEs) are from US Space Command courtesy TS Kelso's Celestial BB ...Continue Reading

Current TLEs <02 NOVEMBER 2004>

November 2nd 2004 PDT

HST 1 20580U 90037B 04307.17585631 .00001685 00000-0 12134-3 0 1978 2 20580 28.4696 307.6099 0003201 18.3419 341.7285 14.99393108596139 ISS (ZARYA) 1 25544U 98067A 04307.51075260 .00037779 00000-0 30851-3 0 512 2 25544 51.6368 339.9531 0008388 307.4833 204.9552 15.70155960340046 CXO 1 25867U 99040B 04306.41666667 .00000000 00000-0 00000+0 0 7172 2 25867 55.0275 107.8280 5723543 303.8045 354.8671 0.37797982 1212 These 2-Line Elements (TLEs) are from US Space Command courtesy TS Kelso's Celestia ...Continue Reading

Current TLEs <22 OCTOBER 2004>

October 23rd 2004 PDT

HST 1 20580U 90037B 04296.45910607 .00000912 00000-0 59688-4 0 1902 2 20580 28.4694 17.3953 0004117 265.2946 94.7172 14.99359833594524 ISS 1 25544U 98067A 04297.96542328 .00022933 00000-0 19506-3 0 9804 2 25544 51.6373 28.6676 0008519 266.5357 265.8198 15.69455665338543 CHANDRA 1 25867U 99040B 04295.87500000 +.00000000 +00000-0 +00000-0 0 07134 2 25867 054.8749 108.1611 5718796 303.7396 359.9234 00.37787708001215 These 2-Line Elements (TLEs) are from US Space Command courtesy TS Kelso's Celestial BB ...Continue Reading
  • This mailing list is a public mailing list - anyone may join or leave, at any time.
  • This mailing list is announce-only.

International Space Station (ISS) / Hubble Space Telescope (HST) / Chandra X-Ray Observatory Orbital Data via EMAIL

Privacy Policy:

Private list